Home   Weather   Glyfada   Past weeks

Flag for Greece Past Weather in Glyfada, Greece — Yesterday and Last 2 Weeks

61 °F

Passing clouds.

Feels Like: 61 °F
Forecast: 60 / 73 °F
Wind: 9 mph from North

Location: Eleftherios Venizelos International Airport

Current Time: Oct 25, 2016 at 8:09:00 AM

Latest Report: Oct 25, 2016 at 7:20 AM

Visibility: N/A

Pressure: 30.27 "Hg

Humidity: 72%

Dew Point: 52 °F

Location of GlyfadaLocation

Past Weather in Glyfada — Graph


Glyfada Temperature Yesterday

Maximum temperature yesterday: 73 °F (at 2:20 PM)
Minimum temperature yesterday: 61 °F (at 12:20 AM)
Average temperature yesterday: 66 °F

High & Low Weather Summary for the Past Weeks

High82 °F (Oct 12, 3:20 PM)94% (Oct 10, 6:20 AM)30.27 "Hg (Oct 10, 6:20 AM)
Low48 °F (Oct 14, 5:50 AM)35% (Oct 13, 10:20 AM)29.77 "Hg (Oct 11, 7:50 PM)
Average65 °F66%30.09 "Hg
* Reported Oct 10 6:20 AM — Oct 25 6:50 AM, Glyfada, Weather by CustomWeather, © 2016

Note: Actual official high and low records may vary slightly from our data, if they occured in-between our weather recording intervals... More about our weather records


Glyfada Weather History for the Previous 24 Hours

Scroll right to see more
Time TempWeatherWind HumidityBarometerVisibility
6:50 AM
Tue, Oct 25
61 °FPassing clouds.9 mph72%30.27 "HgN/A
6:20 AM61 °FPassing clouds.7 mph72%30.27 "HgN/A
5:50 AM63 °FPassing clouds.8 mph73%30.27 "HgN/A
5:20 AM61 °FPassing clouds.10 mph72%30.27 "HgN/A
4:50 AM61 °FPassing clouds.13 mph77%30.27 "HgN/A
4:20 AM63 °FPassing clouds.5 mph73%30.27 "HgN/A
3:50 AM63 °FPassing clouds.5 mph73%30.27 "HgN/A
3:20 AM63 °FPassing clouds.7 mph73%30.27 "HgN/A
2:50 AM63 °FPassing clouds.14 mph73%30.27 "HgN/A
1:50 AM63 °FPassing clouds.12 mph68%30.27 "HgN/A
1:20 AM63 °FPassing clouds.10 mph73%30.27 "HgN/A
12:50 AM64 °FPassing clouds.7 mph68%30.27 "HgN/A
12:20 AM64 °FPassing clouds.3 mph68%30.27 "HgN/A
11:50 PM
Mon, Oct 24
64 °FPassing clouds.6 mph68%30.27 "HgN/A
11:20 PM64 °FPassing clouds.7 mph68%30.27 "HgN/A
10:50 PM64 °FPassing clouds.10 mph64%30.27 "HgN/A
10:20 PM64 °FPassing clouds.12 mph64%30.27 "HgN/A
9:50 PM64 °FPassing clouds.10 mph60%30.27 "HgN/A
9:20 PM64 °FPassing clouds.7 mph60%30.27 "HgN/A
8:50 PM64 °FPassing clouds.5 mph64%30.27 "HgN/A
8:20 PM64 °FPassing clouds.8 mph64%30.27 "HgN/A
7:50 PM66 °FPassing clouds.6 mph60%30.27 "HgN/A
7:20 PM66 °FPassing clouds.10 mph56%30.24 "HgN/A
6:50 PM66 °FPassing clouds.15 mph56%30.24 "HgN/A
6:20 PM68 °FPassing clouds.17 mph53%30.24 "HgN/A
5:50 PM70 °FPassing clouds.15 mph50%30.24 "HgN/A
5:20 PM70 °FPassing clouds.22 mph53%30.24 "HgN/A
4:50 PM70 °FPassing clouds.23 mph53%30.24 "HgN/A
4:20 PM72 °FScattered clouds.23 mph50%30.21 "HgN/A
3:50 PM72 °FScattered clouds.23 mph50%30.21 "HgN/A
3:20 PM72 °FScattered clouds.24 mph50%30.21 "HgN/A
2:50 PM73 °FScattered clouds.26 mph50%30.21 "HgN/A
2:20 PM73 °FPassing clouds.24 mph47%30.24 "HgN/A
1:50 PM72 °FPassing clouds.20 mph53%30.21 "HgN/A
1:20 PM72 °FPassing clouds.21 mph53%30.24 "HgN/A
12:50 PM72 °FPassing clouds.20 mph57%30.24 "HgN/A
12:20 PM72 °FPassing clouds.23 mph53%30.24 "HgN/A
11:50 AM70 °FScattered clouds.14 mph57%30.24 "HgN/A
11:20 AM70 °FScattered clouds.13 mph57%30.24 "HgN/A
10:50 AM70 °FScattered clouds.12 mph60%30.24 "HgN/A
10:20 AM68 °FScattered clouds.12 mph64%30.24 "HgN/A
9:50 AM66 °FScattered clouds.10 mph73%30.21 "HgN/A
9:20 AM66 °FPartly sunny.7 mph73%30.21 "HgN/A
8:50 AM66 °FPartly sunny.8 mph73%30.21 "HgN/A
8:20 AM64 °FPartly sunny.5 mph78%30.21 "HgN/A
Weather by CustomWeather, © 2016

See weather overviewHow to use our weather pages